Regional Weather Roundup
Issued by NWS Wakefield, VA

Home | Current Version | Previous Version | Text Only | Print | Product List | Glossary Off
Versions: 1 2 3 4 5 6 7 8 9 10 11 12 13 14 15 16 17 18 19 20 21 22 23 24 25 26 27

000
ASUS41 KAKQ 262215
RWRAKQ

REGIONAL WEATHER ROUNDUP
NATIONAL WEATHER SERVICE WAKEFIELD VA
600 PM EDT MON SEP 26 2016

Note: "fair" indicates few or no clouds below 12,000 feet with no
significant weather and/or obstructions to visibility. * = Denotes
station may not report precipitation (e.g., rain,snow,etc.),
thunder or fog.

VAZ042-051-052>054-056-262300-
NORTHERN VIRGINIA

CITY           SKY/WX    TMP DP  RH WIND       PRES   REMARKS
WASH NATIONAL  CLOUDY    70  59  68 S12       30.02S
DULLES         CLOUDY    68  59  73 S8        30.01R
FORT BELVOIR   CLOUDY    69  59  70 SE7       30.01S
QUANTICO       CLOUDY    71  61  70 S13       30.02S
FREDERICKSBRG* CLOUDY    69  63  80 S7        30.01R
STAFFORD*      CLOUDY    68  61  78 S7        30.06R
WARRENTON      CLOUDY    69  56  62 S6        30.01S
CULPEPER*      CLOUDY    69  62  78 S6        30.02R
MANASSAS*      CLOUDY    68  63  83 S9        30.00F
LEESBURG*      CLOUDY    70  63  78 S12G18    30.02R
WINCHESTER     CLOUDY    68  61  77 SE9G17    29.97R
FRONT ROYAL*   CLOUDY    68  63  83 S6        29.96R
LURAY*         CLOUDY    72  63  73 SW10      29.97R
$$

VAZ048-049-060>072-079>083-262300-
CENTRAL AND SOUTH CENTRAL VIRGINIA

CITY           SKY/WX    TMP DP  RH WIND       PRES   REMARKS
RICHMOND       CLOUDY    70  60  70 SE7       30.02F
CHESTERFIELD*  CLOUDY    72  52  49 S7        30.04F
PETERSBURG*    CLOUDY    72  64  75 CALM      30.03F
HANOVER        CLOUDY    69  59  70 VRB3      30.03F
TAPPAHANNOCK*  PTSUNNY   71  57  61 SE6       30.04F
QUINTON*       CLOUDY    70  62  76 S3        30.03F
CHARLOTTSVILLE CLOUDY    70  62  76 SW6       30.02R
GORDONSVILLE*  CLOUDY    68  63  83 S5        30.01S
ORANGE*          N/A     68  64  88 CALM      30.03R
LOUISA*        CLOUDY    72  64  78 S5        30.01S
BUMPASS*       CLOUDY    68  62  82 CALM      30.02R
FARMVILLE*     CLOUDY    72  64  77 S8        30.01S
CREWE*         CLOUDY    70  65  84 S5        30.02F
FORT PICKETT*  CLOUDY    70  66  87 S7        30.02F
CHASE CITY*    CLOUDY    71  65  81 S5        30.03S
CLARKSVILLE*   MOCLDY    72  66  83 CALM      30.02S
SOUTH HILL*    CLOUDY    70  65  84 SE3       30.09S
LAWRENCEVILLE* CLOUDY    70  65  84 S3        30.03F
EMPORIA*       CLOUDY    72  64  78 SE3       30.05S
$$

VAZ088>098-262300-
SOUTHEAST VIRGINIA

CITY           SKY/WX    TMP DP  RH WIND       PRES   REMARKS
NORFOLK        CLOUDY    73  63  70 S8        30.04F
VIRGINIA BEACH MOCLDY    73  62  68 SE7       30.04S
NORFOLK NAVAL  CLOUDY    73  63  70 S6        30.05F
WEST POINT*    CLOUDY    72  57  59 SE8       30.05F
SALUDA*        CLOUDY    70  61  72 SE3       30.04S
NEWPORT NEWS   CLOUDY    73  58  59 S7        30.04F
LANGLEY AFB    CLOUDY    73  60  62 S5        30.03F
FORT EUSTIS    CLOUDY    73  59  60 VRB5      30.02F
WILLIAMSBURG*  SUNNY     73  63  68 S5        30.05S
HR EXEC AP*    CLOUDY    73  63  68 SE3       30.06F
FRANKLIN*      CLOUDY    72  63  72 CALM      30.05S
US460-WAKEFLD  CLOUDY    72  61  68 CALM      30.04F
$$

VAZ020-022-025-037-045-262300-
WEST CENTRAL AND SOUTHWEST VIRGINIA

CITY           SKY/WX    TMP DP  RH WIND       PRES   REMARKS
STAUNTON*      CLOUDY    66  61  84 S7        30.04R
WAYNESBORO*    CLOUDY    67  62  84 CALM      30.03R
HOT SPRINGS VA TSTM      50  50 100 W13       30.09R VSB 1/2
LYNCHBURG      CLOUDY    68  63  84 S7        30.03S
DANVILLE       PTSUNNY   73  66  78 VRB3      30.01F
SOUTH BOSTON*  MOCLDY    73  64  73 CALM      30.02S
MARTINSVILLE   PTSUNNY   72  69  92 CALM      30.03F
ROANOKE        LGT RAIN  68  67  96 E8        30.03S FOG
BLACKSBURG     LGT RAIN  68  67  97 E6        30.07S
DUBLIN*        LGT RAIN  70  69  94 N7        30.06R
MARION*        TSTM      66  65  94 S3        30.11R
HILLSVILLE*    CLOUDY    67  67  99 S5        30.06S
RICHLANDS*     MOCLDY    70  66  87 CALM      30.07S
WISE*          CLOUDY    70  66  88 SW6       30.09R
ABINGDON*      DRIZZLE   71  65  81 S5        30.07R
$$

MDZ021>025-VAZ099-100-262300-
SOUTHERN MARYLAND AND THE DELMARVA PENINSULA

CITY           SKY/WX    TMP DP  RH WIND       PRES   REMARKS
PATUXENT RIVER CLOUDY    70  56  61 S8        30.02F
BAY BRIDGE APT CLOUDY    70  57  64 MISG      30.02F
LEONARDTOWN    CLOUDY    68  55  64 SE6       30.04S
DOVER          CLOUDY    71  59  66 S9        30.03F
GEORGETOWN     CLOUDY    71  57  61 S6        30.06S
EASTON         CLOUDY    72  55  56 S8        30.07F
CAMBRIDGE      CLOUDY    70  52  52 SE3       30.04S
SALISBURY      CLOUDY    70  58  65 S7        30.05S
OCEAN CITY     PTCLDY    72  59  63 VRB7      30.06S
WALLOPS ISLAND CLOUDY    72  62  71 S10       30.06F
ACCOMACK*      CLOUDY    72  61  69 SE7       30.05S
$$

NCZ012>017-030>032-262300-
NORTH CENTRAL AND EASTERN NORTH CAROLINA

CITY           SKY/WX    TMP DP  RH WIND       PRES   REMARKS
ROANOKE RAPIDS CLOUDY    72  64  78 S3        30.04S
RALEIGH        PTSUNNY   75  66  73 S5        30.04S
ELIZABETH CITY PTSUNNY   75  64  68 SE6       30.05F
AHOSKIE*       MOSUNNY   72  65  77 CALM      30.05S
EDENTON*       NOT AVBL
CURRITUCK*     PTSUNNY   75  65  70 SE3       30.06F
KILL DEVIL HLS CLOUDY    77  67  72 S7        30.04F
MANTEO         CLEAR     76  65  68 S8        30.06F
CAPE HATTERAS  CLEAR     80  62  54 SE10      30.05F
TARBORO*       CLOUDY    75  65  70 CALM      30.05S
GOLDSBORO      MOSUNNY   79  68  69 E3        30.02S
WASHINGTON     CLOUDY    75  64  68 SE6       30.04F
GREENVILLE     SUNNY     77  64  65 E5        30.06S
NEW BERN       CLOUDY    77  64  64 E6        30.06S
WILMINGTON     SUNNY     78  66  66 E8        30.04S
$$

VAZ048-262300-
ELSEWHERE

CITY           SKY/WX    TMP DP  RH WIND       PRES   REMARKS
HARRISBURG PA  CLOUDY    63  63 100 S10       30.00F
BALTIMORE      CLOUDY    68  56  65 S6        30.02S
ANNAPOLIS      CLOUDY    71  58  63 S13       30.02F
ANDREWS AFB    CLOUDY    67  57  70 S7        30.02S
PHILADELPHIA   CLOUDY    70  51  51 S10       30.05F
HENDERSON NC   PTSUNNY   70  61  72 S5        30.04S
GREENSBORO     PTSUNNY   78  70  76 S9        30.01F
ROCKY MOUNT    CLOUDY    75  65  70 CALM      30.04S
$$

VAZ100-262300-
MARINE

STATION/POSITION TIME  TEMP    WIND        PRES    WAVE   SWELL
                       AIR SEA DIR/SP/G            HT/PER HT/PER
                 (UTC) (F)     (DEG/KT/KT) (MB)    (FT/S) (FT/S)
BRANDYWINE LGT   2100   70     180/ 18/ 20   N/A
CAPE MAY NJ      2100   70 72  140/ 10/ 13 1017.6F
LEWES DE         2100   72 72  180/  9/ 13 1017.5F
OCEAN-CITY-INLET 2100   72 73  190/ 11/ 14 1018.4F
WACHAPREAGUE VA  2100   72 75  160/ 10/ 11 1017.9F
THOMAS POINT MD  2200   71 74  160/ 18/ 19 1017.8F
GOOSES REEF MD   2100   72 75  210/ 14/ 17 1017.6F   2/ 3
COVE POINT MD    2100   70     200/ 11/ 15 1017.6F
SOLOMONS ISLAND  2100   71 76  160/  8/ 11   N/A
BISHOPS HEAD MD  2100   72 71  170/ 12/ 14 1017.6F
PINEY POINT MD   2100          190/ 11/ 14   N/A
POTOMAC MD       2100   72 75  180/ 12/ 14 1016.4F   1/ 3
CAMBRIDGE MD     2100   71 75  180/  3/  7 1016.6F
LEWISETTA VA     2100   71 74  170/  9/ 11 1016.7F
RAPPAHANNOCK LGT 2100          160/ 10/ 12 1018.2F
STINGRAY PT      2100   73 76  110/ 14/ 16 1017.7F   2/ 3
YORK RVR RNG VA  2100   73     160/ 11/ 12 1017.1F
YORKTOWN VA      2100   74 77  150/  7/  8 1017.0F
JAMESTOWN VA     2100   73 77  160/  8/ 10   N/A     0
DOMINION TERM VA 2100   74     160/ 10/ 12 1017.5F
KIPTOPEKE VA     2100      76  170/ 11/ 15   N/A
CHES BAY BRIDGE  2100   73 76  140/  9/ 13 1017.4F
CAPE HENRY VA    2100   73     150/  9/ 12   N/A
WILLOUBY STN VA  2100   73     160/  8/ 11   N/A
CAPE HENRY BUOY  2112      76                N/A     3/ 8
1ST LANDING BUOY 2100   74 76  180/ 12/ 16 1017.1F   2/ 4
CAPE CHARLES BUO 2126      76                N/A     3/ 9
OFFSHORE WE BUOY 2121      76                N/A     3/ 7
64NM E OF VA BCH 2150   75 76  150/ 14/ 17 1017.5F   3/ 8   2/ 8
DUCK PIER NC     2100   75 77  140/  9/ 11 1017.2F
44056 DUCK FRF   2111      77                N/A     3/ 8
OREGON INLET NC  2100   78 77  130/  4/  9 1017.9F
HATTERAS NC      2100   78 77  110/  7/ 10 1017.4F
DIAMOND SHLS NC  2150   79 79  140/ 12/ 14 1017.5F   3/ 8   2/ 8
CAPE LOOKOUT NC  2200   77     100/ 10/ 11 1016.9F
$$




USA.gov is the U.S. government's official web portal to all federal, state and local government web resources and services.